[[{"header":{"parameterUnit":"m.s-1","parameterCategory":2,"la1":30.2991,"la2":30.254,"lo1":-89.0895,"lo2":-89.0444,"dy":0.0017,"dx":0.0017,"nx":28,"ny":28,"refTime":"2026-02-07T09:00:00:Z","depth":"0","parameterNumber":2,"parameterNumberName":"U-component_of_CURRENTS"},"data":[0,0,0,0,0,0,0,0,0,0,0,0,0,0,0,0,0,0,0,0,0,0,0,0,0,0,0,0,0,0,0,0,0,0,0,0,0,0,0,0,0,0,0,0,0,0,0,0,0,0,0,0,0,0,0,0,0,0,0.2751,0.2752,0,0.2789,0.2789,0.2789,0.2683,0.268,0.2678,0.2675,0.2682,0.2685,0.2688,0,0,0,0,0,0,0,0,0,0,0,0,0,0.2557,0.2561,0.2751,0.2752,0.2753,0.2789,0.2789,0.2789,0.2684,0.268,0.2677,0.2674,0.2681,0.2685,0.2688,0,0,0,0,0,0,0,0,0,0,0,0,0,0.2618,0.2562,0.2751,0.2709,0.2706,0.2789,0.2789,0.2789,0.2684,0.268,0.2676,0.2672,0.268,0.2684,0.2688,0.2798,0,0,0.2701,0.2703,0,0,0,0,0,0,0,0,0.2614,0.2624,0.2714,0.2712,0.2709,0.2732,0.2723,0.2792,0.2685,0.2687,0.2675,0.267,0.2703,0.2705,0.2714,0.2798,0.2798,0.2702,0.2704,0.2706,0.2707,0,0,0,0,0,0,0,0.261,0.2622,0.2761,0.2716,0.2713,0.2678,0.2681,0.2735,0.2713,0.2686,0.268,0.2694,0.27,0.271,0.2713,0.2798,0.2701,0.2705,0.2708,0.2709,0.2968,0.2972,0,0,0,0,0,0,0.2624,0.2619,0.276,0.2762,0.2656,0.2685,0.2689,0.2724,0.2713,0.2709,0.2698,0.2689,0.2705,0.2709,0.2713,0.2808,0.2706,0.271,0.2712,0.2963,0.2969,0.2973,0,0,0,0,0,0,0.262,0.2637,0.2758,0.2693,0.2707,0.2694,0.2734,0.2727,0.2736,0.2723,0.2716,0.2712,0.2702,0.2707,0.2772,0.2808,0.2712,0.2715,0.2958,0.2965,0.2971,0.302,0,0,0,0,0,0,0.2615,0.2636,0.2674,0.2696,0.2712,0.2821,0.2738,0.2731,0.2754,0.2742,0.2735,0.273,0.2699,0.2766,0.2776,0.2812,0.2719,0.2953,0.2961,0.2969,0.3013,0.3027,0.3039,0,0,0,0,0,0.2608,0.2705,0.2676,0.2693,0.2762,0.2825,0.283,0.28,0.2759,0.2787,0.2778,0.273,0.2824,0.2774,0.2784,0.2822,0.2949,0.2959,0.2968,0.3006,0.3024,0.3039,0,0,0,0,0,0,0.2668,0.2705,0.2672,0.278,0.2795,0.2808,0.2854,0.2825,0.2843,0.2836,0.2793,0.2792,0.2864,0.2864,0.2808,0.2929,0.2879,0.2891,0.2905,0.2921,0.2935,0.2887,0.2722,0,0,0,0,0,0.2695,0.2759,0.2773,0.2859,0.2872,0.286,0.2884,0.2866,0.2884,0.2884,0.2864,0.2877,0.2923,0.2932,0.2972,0.3047,0.304,0.3083,0.3096,0.3107,0.3083,0.3134,0.3148,0.3006,0.3006,0.3005,0,0,0.2751,0.2775,0.2816,0.2872,0.2882,0.2905,0.2864,0.2926,0.2928,0.2893,0.2906,0.2936,0.2962,0.3028,0.306,0.302,0.3155,0.312,0.3127,0.3096,0.3145,0.3158,0.317,0.3012,0.3011,0.301,0,0,0.2855,0.2905,0.2955,0.2969,0.2994,0.299,0.3009,0.3017,0.3005,0.3057,0.3024,0.3069,0.3132,0.3128,0.3146,0.3275,0.3237,0.3305,0.3311,0.3363,0.3373,0.3382,0.3412,0.3423,0.3294,0.3294,0.3294,0,0.2914,0.295,0.2986,0.3011,0.3016,0.3022,0.3039,0.3062,0.3079,0.3081,0.3073,0.3154,0.3173,0.3227,0.3258,0.3296,0.3314,0.3234,0.3374,0.3382,0.339,0.3418,0.3429,0.3297,0.3297,0.3297,0.3296,0,0.2995,0.3023,0.3071,0.3073,0.3102,0.3145,0.315,0.3174,0.3171,0.3169,0.3234,0.3267,0.3294,0.3332,0.3329,0.3398,0.3392,0.3392,0.3311,0.3405,0.3432,0.3443,0.3303,0.3301,0.33,0.3299,0,0,0.31,0.3116,0.3115,0.3086,0.3123,0.3145,0.3191,0.3207,0.3214,0.3263,0.3269,0.3361,0.3362,0.3384,0.3394,0.3428,0.3512,0.3426,0.3427,0.3418,0.3618,0.3531,0.3534,0.3535,0.3537,0.3538,0.3619,0,0.3119,0.3134,0.3146,0.3152,0.315,0.3168,0.3192,0.3224,0.3258,0.3281,0.3336,0.3374,0.339,0.3405,0.3451,0.35,0.354,0.3488,0.356,0.3561,0.344,0.3543,0.3439,0.3495,0.3629,0.3631,0.3632,0,0.3136,0.3135,0.3129,0.3119,0.3122,0.3135,0.3148,0.3177,0.3244,0.3278,0.3339,0.3378,0.3443,0.3446,0.356,0.3529,0.3574,0.3607,0.3612,0.3506,0.3493,0.3425,0.3508,0.3406,0.3647,0.3646,0.3645,0,0.3092,0.3108,0.3082,0.3083,0.3098,0.3096,0.3109,0.3167,0.3179,0.3268,0.3297,0.3395,0.3432,0.3522,0.3601,0.3592,0.3716,0.3716,0.3678,0.3672,0.358,0.3562,0.353,0.3793,0.3793,0.3793,0.3792,0,0.3066,0.3039,0.3052,0.3031,0.3007,0.3046,0.3039,0.3082,0.3141,0.3164,0.3274,0.3311,0.3454,0.354,0.3616,0.3677,0.374,0.3682,0.3691,0.36,0.3583,0.3484,0.3439,0.3796,0.3795,0.3794,0.3794,0,0.2987,0.3001,0.2967,0.2974,0.2975,0.2952,0.2969,0.2977,0.3053,0.3089,0.3115,0.3259,0.3375,0.3498,0.3643,0.3672,0.3647,0.3754,0.3623,0.3612,0.3443,0.3405,0.3267,0.3171,0.3721,0.3719,0.3718,0,0.2931,0.2912,0.2904,0.2882,0.2872,0.2857,0.2852,0.2919,0.2935,0.3048,0.3058,0.3187,0.3263,0.3441,0.3537,0.365,0.3571,0.3596,0.3547,0.3413,0.338,0.3264,0.3185,0.347,0.3467,0.3464,0.3462,0,0.2824,0.2828,0.2801,0.2767,0.2746,0.2724,0.2726,0.2725,0.2815,0.2862,0.293,0.3001,0.3175,0.3257,0.3402,0.3461,0.3406,0.3539,0.3454,0.3212,0.3032,0.295,0.3427,0.3438,0.344,0.3442,0.3443,0.3444,0.2731,0.2691,0.2671,0.263,0.2613,0.2577,0.2536,0.257,0.258,0.2638,0.2774,0.2858,0.3042,0.3224,0.3247,0.3209,0.3204,0.3163,0.3143,0.3048,0.2889,0.3286,0.3264,0.3265,0.3266,0.3267,0.3268,0,0.2605,0.2578,0.2537,0.2476,0.2424,0.2461,0.2439,0.2403,0.2391,0.2507,0.2572,0.2727,0.2813,0.2928,0.297,0.2867,0.2765,0.279,0.2627,0.2582,0.2999,0.2921,0.2755,0.2755,0.2756,0.2756,0.2756,0.2756,0.2527,0.2449,0.2435,0.2309,0.2277,0.219,0.2168,0.2147,0.22,0.2234,0.2314,0.2448,0.2617,0.2731,0.2648,0.2587,0.2388,0.2286,0.2262,0.2588,0.2622,0.2654,0.2569,0.2333,0.2332,0.1766,0.1762,0.1759]},{"header":{"parameterUnit":"m.s-1","parameterCategory":2,"la1":30.2991,"la2":30.254,"lo1":-89.0895,"lo2":-89.0444,"dy":0.0017,"dx":0.0017,"nx":28,"ny":28,"refTime":"2026-02-07T09:00:00:Z","depth":"0","parameterNumber":3,"parameterNumberName":"V-component_of_CURRENTS"},"data":[0,0,0,0,0,0,0,0,0,0,0,0,0,0,0,0,0,0,0,0,0,0,0,0,0,0,0,0,0,0,0,0,0,0,0,0,0,0,0,0,0,0,0,0,0,0,0,0,0,0,0,0,0,0,0,0,0,0,0.0598,0.0597,0,0.056,0.0559,0.0559,0.0446,0.0443,0.0441,0.0438,0.0362,0.0362,0.0363,0,0,0,0,0,0,0,0,0,0,0,0,0,0.0488,0.0491,0.0598,0.0597,0.0597,0.056,0.0559,0.0558,0.0446,0.0443,0.044,0.0437,0.0362,0.0362,0.0363,0,0,0,0,0,0,0,0,0,0,0,0,0,0.0501,0.0493,0.0598,0.0537,0.0531,0.056,0.0559,0.0558,0.0447,0.0443,0.0439,0.0436,0.0362,0.0362,0.0363,0.0437,0,0,0.0364,0.0364,0,0,0,0,0,0,0,0,0.0501,0.0505,0.0546,0.0541,0.0535,0.0504,0.0492,0.0516,0.0448,0.0478,0.0438,0.0434,0.041,0.0406,0.0406,0.0433,0.043,0.0364,0.0364,0.0364,0.0364,0,0,0,0,0,0,0,0.05,0.0506,0.0582,0.0546,0.0539,0.0482,0.0481,0.0496,0.0463,0.0475,0.0467,0.0465,0.0405,0.0406,0.0403,0.0429,0.0364,0.0364,0.0364,0.0364,0.0478,0.0481,0,0,0,0,0,0,0.0516,0.0506,0.0583,0.0581,0.0509,0.0488,0.0486,0.0517,0.0463,0.0452,0.0468,0.046,0.0407,0.0403,0.04,0.0472,0.0364,0.0364,0.0364,0.0475,0.0479,0.0482,0,0,0,0,0,0,0.0514,0.0525,0.0584,0.054,0.0544,0.0494,0.0529,0.0518,0.0518,0.0459,0.0446,0.0479,0.0404,0.0399,0.0427,0.0468,0.0364,0.0365,0.0472,0.0476,0.048,0.0625,0,0,0,0,0,0,0.0512,0.0525,0.0558,0.0543,0.0547,0.0621,0.0533,0.052,0.0523,0.0512,0.0465,0.0453,0.0401,0.0427,0.0428,0.0467,0.0365,0.0468,0.0474,0.0479,0.0616,0.0633,0.0648,0,0,0,0,0,0.0509,0.0582,0.0561,0.057,0.0594,0.0623,0.0622,0.057,0.0527,0.0552,0.0516,0.0455,0.046,0.0431,0.043,0.047,0.0466,0.0472,0.0478,0.0609,0.063,0.0647,0,0,0,0,0,0,0.0568,0.0577,0.0553,0.0629,0.0629,0.0604,0.063,0.0595,0.0589,0.0578,0.0506,0.0496,0.053,0.0496,0.0466,0.0519,0.0448,0.0455,0.0548,0.0567,0.0583,0.0572,0.0365,0,0,0,0,0,0.0597,0.0648,0.0637,0.0703,0.0706,0.0672,0.0678,0.0649,0.0637,0.0629,0.0587,0.0559,0.0562,0.0559,0.0551,0.06,0.0548,0.0622,0.0638,0.0651,0.0644,0.0613,0.0624,0.0503,0.0502,0.0502,0,0,0.0636,0.0653,0.0679,0.0717,0.0711,0.0747,0.0668,0.07,0.072,0.0629,0.0649,0.0621,0.059,0.0627,0.0639,0.06,0.0667,0.0659,0.0671,0.0656,0.062,0.0632,0.0642,0.0507,0.0506,0.0505,0,0,0.0747,0.076,0.0827,0.0838,0.0848,0.0827,0.0843,0.0824,0.0802,0.0839,0.0767,0.0766,0.0772,0.0742,0.0735,0.0844,0.0754,0.0843,0.0912,0.0883,0.0892,0.0899,0.0877,0.088,0.0847,0.0847,0.0847,0,0.0798,0.0862,0.0853,0.0915,0.092,0.087,0.092,0.0922,0.0908,0.0899,0.0865,0.085,0.0827,0.0851,0.088,0.0878,0.0842,0.0842,0.0902,0.0907,0.0912,0.0886,0.0888,0.0855,0.0854,0.0853,0.0852,0,0.0936,0.0977,0.1024,0.107,0.1092,0.1129,0.1113,0.1121,0.1086,0.1065,0.1073,0.1032,0.1009,0.1014,0.0985,0.101,0.097,0.0927,0.0848,0.0932,0.0901,0.0901,0.0866,0.0863,0.0861,0.0859,0,0,0.1051,0.1104,0.1112,0.1127,0.1157,0.1185,0.1233,0.1239,0.1263,0.1234,0.1244,0.1243,0.1185,0.1172,0.112,0.1096,0.1118,0.1033,0.1028,0.1002,0.1057,0.1017,0.1012,0.1079,0.1079,0.1079,0.1031,0,0.1138,0.124,0.1251,0.133,0.1358,0.1333,0.1382,0.1393,0.1382,0.1388,0.1324,0.1334,0.1258,0.1252,0.1217,0.1145,0.1119,0.1135,0.0985,0.0981,0.0928,0.1011,0.0956,0.0907,0.103,0.103,0.103,0,0.1234,0.128,0.1361,0.1402,0.1418,0.147,0.1497,0.1542,0.1549,0.1545,0.1519,0.1465,0.1432,0.1353,0.1251,0.1262,0.1172,0.1104,0.11,0.1003,0.094,0.0838,0.09,0.0727,0.1028,0.1028,0.1028,0,0.1252,0.134,0.1387,0.1407,0.1474,0.1504,0.1538,0.1578,0.162,0.1636,0.1663,0.1594,0.157,0.1448,0.1305,0.1282,0.1178,0.1128,0.1002,0.0998,0.089,0.0876,0.0753,0.1046,0.1047,0.1047,0.1047,0,0.1301,0.134,0.1396,0.1429,0.1498,0.1541,0.1621,0.1657,0.1716,0.1786,0.1736,0.1758,0.1592,0.1503,0.1351,0.1184,0.1212,0.1025,0.0986,0.0944,0.0936,0.0728,0.0643,0.1045,0.1045,0.1046,0.1046,0,0.1308,0.134,0.1403,0.1479,0.1506,0.1561,0.167,0.1739,0.1802,0.1886,0.1898,0.1884,0.1795,0.1613,0.1431,0.1262,0.099,0.1022,0.0989,0.0947,0.0668,0.0595,0.0438,0.0363,0.0887,0.0886,0.0885,0,0.1314,0.1347,0.1435,0.1481,0.1518,0.16,0.1671,0.1761,0.1845,0.1961,0.2005,0.1967,0.1938,0.1667,0.1378,0.1114,0.0957,0.0877,0.0822,0.0656,0.0545,0.0508,0.0454,0.0745,0.0743,0.0742,0.074,0,0.1334,0.1364,0.1423,0.1517,0.1591,0.1681,0.1788,0.1862,0.1984,0.2071,0.2171,0.2163,0.1927,0.1644,0.129,0.1089,0.075,0.0834,0.0663,0.0429,0.0379,0.0288,0.0781,0.0725,0.0727,0.0728,0.0729,0.0729,0.1341,0.1386,0.147,0.1559,0.1648,0.1764,0.1841,0.1964,0.2101,0.2248,0.2261,0.2288,0.1869,0.1391,0.1116,0.0578,0.0638,0.0405,0.0334,0.0316,0.0227,0.0698,0.0598,0.0599,0.0599,0.06,0.06,0,0.1348,0.1416,0.1511,0.1621,0.172,0.1769,0.1925,0.2015,0.2162,0.2299,0.2382,0.2178,0.1672,0.1189,0.0466,0.0124,0.0016,-0.0051,-0.0137,-0.0164,0.0239,0.0213,0.0026,0.0026,0.0027,0.0027,0.0027,0.0027,0.1354,0.1444,0.1507,0.1663,0.1741,0.1873,0.1957,0.2099,0.2223,0.2343,0.2358,0.2356,0.189,0.0653,-0.0156,-0.0316,-0.0536,-0.0585,-0.0653,-0.0417,-0.038,-0.0345,-0.039,-0.07,-0.0701,-0.1037,-0.104,-0.1043]}],[{"header":{"parameterUnit":"m.s-1","parameterCategory":2,"la1":30.2991,"la2":30.254,"lo1":-89.0895,"lo2":-89.0444,"dy":0.0017,"dx":0.0017,"nx":28,"ny":28,"refTime":"2026-02-07T09:00:00:Z","depth":"2","parameterNumber":2,"parameterNumberName":"U-component_of_CURRENTS"},"data":[0,0,0,0,0,0,0,0,0,0,0,0,0,0,0,0,0,0,0,0,0,0,0,0,0,0,0,0,0,0,0,0,0,0,0,0,0,0,0,0,0,0,0,0,0,0,0,0,0,0,0,0,0,0,0,0,0,0,0.1854,0.1854,0,0.1925,0.1926,0.1926,0.1917,0.1916,0.1915,0.1914,0.1893,0.1894,0.1894,0,0,0,0,0,0,0,0,0,0,0,0,0,0.1793,0.1794,0.1853,0.1855,0.1856,0.1925,0.1926,0.1927,0.1917,0.1916,0.1914,0.1913,0.1893,0.1894,0.1894,0,0,0,0,0,0,0,0,0,0,0,0,0,0.1836,0.1794,0.1853,0.186,0.1862,0.1925,0.1926,0.1927,0.1917,0.1916,0.1914,0.1913,0.1893,0.1894,0.1894,0.1929,0,0,0.1896,0.1896,0,0,0,0,0,0,0,0,0.1833,0.1838,0.1858,0.186,0.1862,0.1912,0.1897,0.1924,0.1918,0.1894,0.1914,0.1912,0.1893,0.1894,0.191,0.1928,0.1927,0.1896,0.1897,0.1897,0.1897,0,0,0,0,0,0,0,0.183,0.1835,0.188,0.186,0.1862,0.1889,0.1892,0.1903,0.1899,0.1896,0.1896,0.1907,0.1893,0.1909,0.1909,0.1927,0.1896,0.1897,0.1897,0.1897,0.1979,0.1981,0,0,0,0,0,0,0.1822,0.1832,0.1878,0.1882,0.1845,0.1891,0.1895,0.1896,0.19,0.1901,0.1909,0.1907,0.1909,0.1908,0.1908,0.1947,0.1897,0.1897,0.1898,0.1977,0.1979,0.1981,0,0,0,0,0,0,0.182,0.1825,0.1875,0.1861,0.1869,0.1893,0.1895,0.1898,0.1916,0.1911,0.1909,0.1923,0.1908,0.1907,0.1936,0.1946,0.1898,0.1898,0.1975,0.1978,0.198,0.2026,0,0,0,0,0,0,0.1818,0.1824,0.1846,0.186,0.187,0.1917,0.1897,0.1901,0.1926,0.1924,0.1923,0.192,0.1906,0.1935,0.1936,0.1946,0.1899,0.1973,0.1976,0.1979,0.2023,0.203,0.2037,0,0,0,0,0,0.1816,0.1844,0.1846,0.1854,0.1891,0.1918,0.1926,0.1937,0.1928,0.1946,0.1953,0.192,0.1956,0.1938,0.1939,0.1948,0.1971,0.1975,0.1979,0.2019,0.2029,0.2037,0,0,0,0,0,0,0.1845,0.1846,0.1849,0.1881,0.1901,0.1917,0.1938,0.1947,0.1969,0.1974,0.1952,0.195,0.1972,0.1968,0.1947,0.1985,0.1955,0.196,0.1985,0.1994,0.2001,0.2026,0.1899,0,0,0,0,0,0.186,0.1866,0.1882,0.1909,0.1912,0.1928,0.1948,0.1965,0.1979,0.1987,0.197,0.1975,0.1993,0.1999,0.2004,0.2036,0.2031,0.2042,0.2049,0.2055,0.2078,0.2098,0.2109,0.1994,0.1994,0.1994,0,0,0.1878,0.1882,0.1888,0.1914,0.1921,0.1913,0.1934,0.1973,0.199,0.1983,0.1984,0.1996,0.2008,0.2036,0.2045,0.2031,0.2081,0.206,0.2065,0.2086,0.2103,0.2114,0.2124,0.1997,0.1997,0.1996,0,0,0.1876,0.1914,0.1894,0.1906,0.1932,0.1945,0.1953,0.1969,0.2003,0.2041,0.2029,0.2066,0.2068,0.2087,0.21,0.2159,0.2115,0.2142,0.2201,0.2219,0.2228,0.2237,0.2222,0.2229,0.2149,0.2149,0.2149,0,0.188,0.1886,0.1903,0.1879,0.1904,0.1942,0.1943,0.1979,0.2008,0.2061,0.2046,0.2099,0.2102,0.216,0.2182,0.2174,0.2163,0.2162,0.2227,0.2236,0.2243,0.2227,0.2233,0.2152,0.2152,0.2151,0.2151,0,0.1836,0.1864,0.1858,0.1828,0.1855,0.1887,0.1925,0.1968,0.2015,0.206,0.2146,0.2171,0.2211,0.221,0.222,0.2277,0.2243,0.2227,0.2201,0.2257,0.2236,0.2242,0.2156,0.2155,0.2154,0.2153,0,0,0.1775,0.1816,0.1814,0.1831,0.1859,0.1875,0.1925,0.2009,0.2048,0.2119,0.2182,0.2258,0.2296,0.2316,0.2323,0.235,0.239,0.232,0.2319,0.2298,0.2404,0.2329,0.2327,0.2376,0.2378,0.238,0.2358,0,0.1736,0.1718,0.1758,0.1773,0.178,0.1862,0.1902,0.1992,0.2064,0.2121,0.2243,0.2284,0.2327,0.2344,0.2396,0.2393,0.2412,0.2396,0.2361,0.236,0.228,0.2335,0.2193,0.2158,0.2364,0.2365,0.2366,0,0.1673,0.1687,0.1701,0.1796,0.1804,0.1819,0.1924,0.1979,0.21,0.2164,0.2267,0.2312,0.2417,0.2406,0.249,0.2474,0.2458,0.2446,0.2444,0.2369,0.2298,0.2142,0.2161,0.2376,0.2375,0.2374,0.2373,0,0.1631,0.1663,0.1698,0.1714,0.179,0.1848,0.1906,0.2006,0.2085,0.2183,0.2233,0.2347,0.2401,0.2445,0.248,0.2478,0.2516,0.25,0.2414,0.2406,0.2279,0.2258,0.253,0.253,0.253,0.253,0.253,0,0.1598,0.1621,0.1685,0.1703,0.1758,0.183,0.1906,0.1978,0.2086,0.2168,0.2263,0.2318,0.2413,0.2456,0.2476,0.248,0.2527,0.2442,0.241,0.2288,0.2269,0.2458,0.245,0.2529,0.2529,0.253,0.253,0,0.1546,0.1592,0.1632,0.1718,0.1746,0.1788,0.1907,0.1956,0.2066,0.2163,0.2204,0.2317,0.2378,0.2432,0.2458,0.2459,0.2457,0.2423,0.2262,0.2213,0.233,0.2325,0.2347,0.2345,0.2343,0.2341,0.2339,0,0.1517,0.1532,0.1615,0.165,0.1696,0.1766,0.182,0.1936,0.1987,0.2161,0.2202,0.2286,0.2328,0.2353,0.2346,0.2341,0.2388,0.2168,0.2158,0.2352,0.2319,0.2317,0.2315,0.1995,0.199,0.1987,0.1984,0,0.1471,0.1508,0.1543,0.1601,0.1659,0.1715,0.1804,0.1827,0.1976,0.2052,0.2148,0.2193,0.2242,0.217,0.2147,0.213,0.2172,0.2097,0.2348,0.2066,0.2019,0.1986,0.1996,0.1954,0.1957,0.1959,0.1961,0.1962,0.1437,0.1438,0.1499,0.1543,0.1611,0.1664,0.1667,0.1743,0.1805,0.188,0.1989,0.2,0.2035,0.1934,0.1885,0.1856,0.2,0.1919,0.1931,0.1945,0.1911,0.1864,0.1761,0.1763,0.1765,0.1766,0.1767,0,0.139,0.1396,0.1442,0.1491,0.152,0.1612,0.1651,0.1609,0.1612,0.1705,0.1744,0.1633,0.1597,0.1643,0.1568,0.1568,0.1561,0.1498,0.1489,0.1521,0.155,0.1496,0.1235,0.1233,0.1231,0.1229,0,0,0.1366,0.1364,0.1376,0.1385,0.1442,0.1455,0.146,0.1395,0.1401,0.1357,0.1373,0.1471,0.1587,0.1375,0.1368,0.1289,0.1385,0.1239,0.1674,0.1696,0.1721,0.181,0.1765,0,0,0,0,0]},{"header":{"parameterUnit":"m.s-1","parameterCategory":2,"la1":30.2991,"la2":30.254,"lo1":-89.0895,"lo2":-89.0444,"dy":0.0017,"dx":0.0017,"nx":28,"ny":28,"refTime":"2026-02-07T09:00:00:Z","depth":"2","parameterNumber":3,"parameterNumberName":"V-component_of_CURRENTS"},"data":[0,0,0,0,0,0,0,0,0,0,0,0,0,0,0,0,0,0,0,0,0,0,0,0,0,0,0,0,0,0,0,0,0,0,0,0,0,0,0,0,0,0,0,0,0,0,0,0,0,0,0,0,0,0,0,0,0,0,-0.0012,-0.0013,0,-0.0036,-0.0037,-0.0037,-0.0057,-0.0057,-0.0057,-0.0057,-0.0147,-0.0149,-0.0151,0,0,0,0,0,0,0,0,0,0,0,0,0,0.0006,0.0006,-0.0012,-0.0013,-0.0013,-0.0036,-0.0037,-0.0037,-0.0057,-0.0057,-0.0057,-0.0057,-0.0146,-0.0149,-0.0151,0,0,0,0,0,0,0,0,0,0,0,0,0,-0.0009,0.0006,-0.0012,-0.0025,-0.0026,-0.0036,-0.0037,-0.0037,-0.0057,-0.0057,-0.0057,-0.0057,-0.0145,-0.0148,-0.0152,-0.017,0,0,-0.0162,-0.0164,0,0,0,0,0,0,0,0,-0.0008,-0.001,-0.0023,-0.0024,-0.0025,-0.0043,-0.0063,-0.0084,-0.0057,-0.0046,-0.0057,-0.0057,-0.0117,-0.0123,-0.0128,-0.0174,-0.0178,-0.0162,-0.0165,-0.0166,-0.0167,0,0,0,0,0,0,0,-0.0007,-0.0009,-0.0023,-0.0023,-0.0024,-0.0032,-0.0035,-0.0067,-0.0082,-0.0047,-0.0048,-0.0049,-0.0119,-0.0124,-0.013,-0.0179,-0.0162,-0.0165,-0.0168,-0.0169,-0.0254,-0.0254,0,0,0,0,0,0,-0.0001,-0.0008,-0.0022,-0.0024,-0.0016,-0.0032,-0.0035,-0.0038,-0.0081,-0.0087,-0.0049,-0.005,-0.0118,-0.0126,-0.0133,-0.0157,-0.0166,-0.0169,-0.0171,-0.0254,-0.0254,-0.0254,0,0,0,0,0,0,-0.0001,-0.0003,-0.0021,-0.0015,-0.0018,-0.0032,-0.0035,-0.0038,-0.0042,-0.0081,-0.0089,-0.005,-0.0119,-0.0129,-0.0165,-0.0161,-0.0171,-0.0174,-0.0254,-0.0254,-0.0254,-0.0205,0,0,0,0,0,0,-0.0,-0.0002,0.0002,-0.0015,-0.0018,-0.0027,-0.0035,-0.0038,-0.0042,-0.0044,-0.0085,-0.0093,-0.012,-0.0159,-0.0168,-0.0166,-0.0177,-0.0253,-0.0254,-0.0254,-0.0206,-0.0203,-0.0201,0,0,0,0,0,0.0,-0.0,0.0002,0.0001,-0.0014,-0.0027,-0.003,-0.0041,-0.0042,-0.0045,-0.0074,-0.0092,-0.0168,-0.0162,-0.0173,-0.0171,-0.0253,-0.0254,-0.0254,-0.0207,-0.0204,-0.0201,0,0,0,0,0,0,0.0007,-0.0002,-0.0001,-0.0004,-0.0012,-0.003,-0.0035,-0.0037,-0.006,-0.0063,-0.0098,-0.0109,-0.0138,-0.0164,-0.0157,-0.0198,-0.0212,-0.0215,-0.0173,-0.017,-0.0168,-0.0139,-0.0179,0,0,0,0,0,0.0013,0.0011,0.0002,-0.0001,-0.0006,-0.0017,-0.0022,-0.0026,-0.0048,-0.0057,-0.0088,-0.0121,-0.0147,-0.0166,-0.0198,-0.0222,-0.0241,-0.0228,-0.0225,-0.0223,-0.0207,-0.0238,-0.0236,-0.0256,-0.0256,-0.0256,0,0,0.0017,0.001,0.001,0.0001,-0.0009,-0.0017,-0.0021,-0.0028,-0.0029,-0.0066,-0.0088,-0.0115,-0.0153,-0.0178,-0.0193,-0.02,-0.0229,-0.0223,-0.0221,-0.0206,-0.0238,-0.0236,-0.0234,-0.0256,-0.0256,-0.0256,0,0,0.001,0.0014,0.0006,0.0001,-0.0007,-0.0013,-0.0012,-0.0029,-0.0032,-0.0053,-0.0075,-0.0094,-0.0149,-0.0163,-0.0179,-0.0182,-0.0214,-0.0199,-0.0163,-0.0193,-0.0191,-0.019,-0.0213,-0.0214,-0.0198,-0.0198,-0.0198,0,0.001,0.001,0.0002,-0.0008,-0.0005,-0.0011,-0.0013,-0.0019,-0.0043,-0.0037,-0.0058,-0.0103,-0.0137,-0.0145,-0.0146,-0.0173,-0.0197,-0.0169,-0.0188,-0.0187,-0.0186,-0.0211,-0.0212,-0.0195,-0.0196,-0.0196,-0.0196,0,0.0001,0.0003,-0.0004,-0.0013,-0.0015,-0.0014,-0.0019,-0.0014,-0.0018,-0.0024,-0.0032,-0.0071,-0.009,-0.0108,-0.0129,-0.0135,-0.0156,-0.018,-0.019,-0.0181,-0.0208,-0.021,-0.0192,-0.0193,-0.0194,-0.0194,0,0,-0.0005,-0.0009,-0.0009,0.0003,-0.0008,-0.0004,-0.0001,0.0011,0.0022,0.0004,0.0012,-0.0019,-0.0025,-0.0042,-0.0068,-0.0092,-0.0112,-0.013,-0.0133,-0.0142,-0.0178,-0.0192,-0.0196,-0.0145,-0.0145,-0.0145,-0.0198,0,-0.0007,-0.0003,-0.0013,-0.0,0.001,0.0015,0.0021,0.0033,0.0027,0.0027,0.0022,-0.0001,-0.0006,-0.0023,-0.0035,-0.0093,-0.0116,-0.0094,-0.0194,-0.0196,-0.0201,-0.0199,-0.0172,-0.0218,-0.0201,-0.0202,-0.0202,0,-0.0006,0.0004,0.0016,0.0041,0.0043,0.0041,0.0074,0.0074,0.0077,0.0076,0.0077,0.0048,0.0042,0.0008,-0.004,-0.0029,-0.0092,-0.0141,-0.0145,-0.0172,-0.0215,-0.0226,-0.0224,-0.0207,-0.0206,-0.0206,-0.0206,0,0.0026,0.0031,0.0052,0.0057,0.007,0.0082,0.0086,0.0091,0.0108,0.0091,0.0095,0.0081,0.0069,0.0009,-0.0058,-0.0065,-0.0133,-0.0163,-0.0231,-0.0233,-0.0234,-0.0236,-0.0218,-0.0218,-0.0218,-0.0217,-0.0217,0,0.0045,0.0065,0.0071,0.0084,0.0123,0.0108,0.0134,0.014,0.014,0.0173,0.0119,0.0148,0.0063,0.0022,-0.005,-0.0127,-0.0123,-0.0215,-0.0245,-0.0218,-0.0218,-0.0227,-0.0228,-0.0219,-0.0219,-0.0219,-0.0218,0,0.0078,0.0078,0.0111,0.0128,0.0136,0.016,0.0176,0.02,0.0182,0.0219,0.0213,0.0195,0.0148,0.0052,-0.0054,-0.0116,-0.0206,-0.0248,-0.0203,-0.0226,-0.029,-0.0287,-0.0327,-0.0327,-0.0328,-0.0329,-0.0329,0,0.0093,0.0115,0.0149,0.0172,0.0175,0.0205,0.0236,0.0234,0.0267,0.0277,0.0316,0.0253,0.027,0.0112,-0.0039,-0.0186,-0.0211,-0.0279,-0.0288,-0.0274,-0.03,-0.0296,-0.0293,-0.0275,-0.0275,-0.0275,-0.0275,0,0.0131,0.0142,0.0171,0.0223,0.0256,0.0305,0.0342,0.0387,0.0404,0.0446,0.051,0.0502,0.0334,0.0212,-0.0032,-0.0132,-0.0251,-0.0285,-0.0287,-0.0249,-0.023,-0.0254,-0.0251,-0.0275,-0.0275,-0.0275,-0.0275,-0.0275,0.0158,0.0193,0.023,0.0283,0.0332,0.0406,0.0466,0.053,0.062,0.0691,0.0671,0.0668,0.0458,0.0179,-0.0016,-0.0245,-0.0248,-0.0322,-0.032,-0.0319,-0.0301,-0.0284,-0.0336,-0.0336,-0.0336,-0.0337,-0.0337,0,0.019,0.0233,0.0286,0.0361,0.0435,0.0436,0.0548,0.0624,0.0767,0.0817,0.0863,0.0686,0.0504,0.0258,-0.007,-0.0272,-0.0286,-0.0337,-0.0302,-0.0301,-0.03,-0.028,-0.031,-0.0311,-0.0311,-0.0311,0,0,0.0209,0.0269,0.0303,0.0436,0.0489,0.0599,0.0672,0.0791,0.0866,0.0955,0.095,0.0875,0.0581,0.0354,0.0073,-0.0108,-0.0156,-0.015,-0.0152,-0.0077,-0.0073,-0.0277,-0.0243,0,0,0,0,0]}],[{"header":{"parameterUnit":"m.s-1","parameterCategory":2,"la1":30.2991,"la2":30.254,"lo1":-89.0895,"lo2":-89.0444,"dy":0.0017,"dx":0.0017,"nx":28,"ny":28,"refTime":"2026-02-07T09:00:00:Z","depth":"4","parameterNumber":2,"parameterNumberName":"U-component_of_CURRENTS"},"data":[0,0,0,0,0,0,0,0,0,0,0,0,0,0,0,0,0,0,0,0,0,0,0,0,0,0,0,0,0,0,0,0,0,0,0,0,0,0,0,0,0,0,0,0,0,0,0,0,0,0,0,0,0,0,0,0,0,0,0.0954,0.0955,0,0.0999,0.1,0.1,0.1042,0.1042,0.1043,0.1043,0.1087,0.1088,0.1088,0,0,0,0,0,0,0,0,0,0,0,0,0,0.092,0.092,0.0954,0.0955,0.0955,0.0999,0.1,0.1,0.1042,0.1042,0.1043,0.1043,0.1087,0.1087,0.1088,0,0,0,0,0,0,0,0,0,0,0,0,0,0.0947,0.092,0.0954,0.0981,0.0983,0.0999,0.1,0.1,0.1042,0.1042,0.1043,0.1044,0.1086,0.1087,0.1088,0.1081,0,0,0.1092,0.1092,0,0,0,0,0,0,0,0,0.0945,0.0948,0.0976,0.0979,0.0982,0.1015,0.1004,0.1027,0.1041,0.102,0.1043,0.1044,0.1062,0.1065,0.1073,0.1083,0.1085,0.1092,0.1093,0.1093,0.1093,0,0,0,0,0,0,0,0.0944,0.0947,0.0972,0.0977,0.098,0.0996,0.1,0.1008,0.1037,0.1022,0.1025,0.1029,0.1064,0.1072,0.1074,0.1086,0.1092,0.1093,0.1094,0.1094,0.1143,0.1144,0,0,0,0,0,0,0.0935,0.0945,0.0971,0.0974,0.0964,0.0996,0.1001,0.1004,0.1037,0.1043,0.1028,0.1031,0.1069,0.1073,0.1076,0.1116,0.1093,0.1094,0.1095,0.1143,0.1143,0.1144,0,0,0,0,0,0,0.0934,0.0937,0.0969,0.096,0.0965,0.0995,0.0999,0.1005,0.1036,0.1042,0.1047,0.1056,0.107,0.1074,0.1093,0.1116,0.1095,0.1096,0.1142,0.1143,0.1144,0.1167,0,0,0,0,0,0,0.0933,0.0936,0.0951,0.0959,0.0965,0.0988,0.0998,0.1005,0.1036,0.104,0.1067,0.1071,0.1071,0.1091,0.1094,0.1117,0.1096,0.1141,0.1142,0.1143,0.1165,0.1168,0.1171,0,0,0,0,0,0.0932,0.0931,0.0952,0.0956,0.0979,0.0988,0.0993,0.1017,0.1037,0.1049,0.1065,0.1071,0.1101,0.1092,0.1095,0.112,0.114,0.1142,0.1143,0.1164,0.1168,0.1171,0,0,0,0,0,0,0.0921,0.0936,0.0958,0.0964,0.0985,0.0995,0.1007,0.103,0.1054,0.1065,0.1074,0.1078,0.1104,0.1106,0.1096,0.1138,0.1125,0.1127,0.1139,0.1143,0.1146,0.1152,0.1097,0,0,0,0,0,0.0927,0.0937,0.0954,0.0966,0.0972,0.0999,0.1012,0.1033,0.1048,0.1061,0.1078,0.1096,0.1109,0.1121,0.113,0.115,0.1151,0.117,0.1173,0.1176,0.1183,0.1193,0.1198,0.1149,0.1149,0.1149,0,0,0.0925,0.0938,0.0945,0.0966,0.0982,0.0991,0.1009,0.1032,0.1051,0.106,0.1091,0.1107,0.1115,0.1137,0.115,0.1145,0.119,0.1177,0.118,0.1186,0.1195,0.12,0.1204,0.115,0.115,0.115,0,0,0.0911,0.0939,0.0937,0.0955,0.0985,0.1002,0.1014,0.104,0.1064,0.1089,0.1105,0.1133,0.115,0.1165,0.1173,0.1198,0.1202,0.1209,0.1234,0.1244,0.1248,0.1252,0.1257,0.126,0.1214,0.1214,0.1214,0,0.0907,0.0919,0.094,0.0943,0.0964,0.1007,0.1016,0.1039,0.1074,0.1098,0.11,0.1148,0.116,0.1192,0.1207,0.1206,0.1211,0.1219,0.1248,0.1251,0.1255,0.1259,0.1263,0.1215,0.1215,0.1215,0.1215,0,0.0886,0.0909,0.0908,0.0933,0.0957,0.0975,0.1007,0.1043,0.108,0.1106,0.1151,0.1167,0.1201,0.1212,0.1219,0.126,0.1257,0.1247,0.1238,0.1261,0.1264,0.1268,0.1217,0.1216,0.1216,0.1216,0,0,0.0835,0.0883,0.0887,0.0915,0.0962,0.0977,0.1013,0.106,0.1096,0.113,0.117,0.1204,0.1235,0.1246,0.1267,0.1283,0.1315,0.1286,0.1286,0.1289,0.134,0.1284,0.1283,0.1314,0.1315,0.1315,0.1331,0,0.0818,0.0835,0.0866,0.0902,0.0919,0.0977,0.1009,0.1062,0.1107,0.1152,0.1188,0.123,0.124,0.1273,0.129,0.1315,0.1327,0.1312,0.1318,0.1318,0.1265,0.1286,0.1318,0.1334,0.1335,0.1336,0.1336,0,0.0786,0.0813,0.0841,0.0914,0.0925,0.0955,0.1038,0.1073,0.1143,0.1179,0.1229,0.126,0.1314,0.1306,0.1351,0.1344,0.135,0.1353,0.1354,0.1298,0.127,0.1307,0.1343,0.1342,0.1342,0.1341,0.1341,0,0.0754,0.0799,0.0834,0.0854,0.0928,0.0964,0.1013,0.1087,0.1129,0.1208,0.1243,0.1299,0.1341,0.1354,0.1388,0.1374,0.142,0.1392,0.1339,0.1335,0.137,0.1366,0.1407,0.1407,0.1407,0.1407,0.1407,0,0.0728,0.0758,0.0826,0.0845,0.0893,0.0957,0.1019,0.1072,0.1151,0.1199,0.1263,0.1303,0.1358,0.1395,0.1399,0.1392,0.143,0.1349,0.1338,0.1379,0.1375,0.1372,0.1368,0.1408,0.1408,0.1407,0.1407,0,0.0688,0.0734,0.0773,0.0852,0.0879,0.0917,0.1014,0.1051,0.1141,0.1204,0.1235,0.1323,0.1375,0.1413,0.1447,0.1407,0.1403,0.1388,0.1444,0.1434,0.1303,0.1299,0.131,0.1308,0.1307,0.1305,0.1304,0,0.067,0.0685,0.0761,0.0781,0.0819,0.0887,0.0927,0.1032,0.1076,0.1205,0.1223,0.1314,0.1364,0.136,0.1408,0.1408,0.1392,0.1373,0.1321,0.1306,0.1294,0.1293,0.1292,0.1302,0.1301,0.1301,0.1301,0,0.0626,0.0657,0.0688,0.0729,0.0772,0.0816,0.089,0.0918,0.1042,0.1128,0.1191,0.1229,0.1287,0.1319,0.1345,0.1337,0.1374,0.1356,0.1358,0.1309,0.1296,0.1286,0.1286,0.1295,0.1296,0.1297,0.1297,0,0.059,0.0594,0.0634,0.0666,0.0711,0.0735,0.0786,0.0851,0.0915,0.1067,0.1088,0.1186,0.1279,0.1284,0.1303,0.1304,0.1268,0.1209,0.1217,0.1224,0.119,0.1161,0.1113,0,0,0,0,0,0.0546,0.0546,0.0566,0.0598,0.0638,0.0669,0.0752,0.0811,0.0936,0.0952,0.1024,0.1078,0.1129,0.1179,0.116,0.1251,0.1263,0.1221,0.1195,0.1266,0.1272,0.1243,0,0,0,0,0,0,0.0516,0.0533,0.0543,0.0536,0.0545,0.0587,0.0637,0.0719,0.0745,0.0874,0.0907,0.1005,0.1066,0.1126,0.1135,0.115,0.1109,0.1289,0.1286,0.1263,0.1268,0.1273,0.1245,0,0,0,0,0]},{"header":{"parameterUnit":"m.s-1","parameterCategory":2,"la1":30.2991,"la2":30.254,"lo1":-89.0895,"lo2":-89.0444,"dy":0.0017,"dx":0.0017,"nx":28,"ny":28,"refTime":"2026-02-07T09:00:00:Z","depth":"4","parameterNumber":3,"parameterNumberName":"V-component_of_CURRENTS"},"data":[0,0,0,0,0,0,0,0,0,0,0,0,0,0,0,0,0,0,0,0,0,0,0,0,0,0,0,0,0,0,0,0,0,0,0,0,0,0,0,0,0,0,0,0,0,0,0,0,0,0,0,0,0,0,0,0,0,0,-0.0009,-0.001,0,-0.0026,-0.0026,-0.0026,-0.0028,-0.0028,-0.0028,-0.0028,-0.008,-0.0082,-0.0083,0,0,0,0,0,0,0,0,0,0,0,0,0,0.0013,0.0012,-0.0009,-0.001,-0.001,-0.0026,-0.0026,-0.0026,-0.0028,-0.0028,-0.0028,-0.0028,-0.008,-0.0081,-0.0083,0,0,0,0,0,0,0,0,0,0,0,0,0,0.0001,0.0012,-0.0009,-0.0013,-0.0013,-0.0026,-0.0026,-0.0026,-0.0028,-0.0028,-0.0028,-0.0027,-0.0079,-0.0081,-0.0083,-0.0102,0,0,-0.009,-0.0091,0,0,0,0,0,0,0,0,0.0001,-0.0,-0.0012,-0.0013,-0.0013,-0.0025,-0.0037,-0.0053,-0.0028,-0.0022,-0.0028,-0.0027,-0.0065,-0.0069,-0.0071,-0.0104,-0.0106,-0.0091,-0.0092,-0.0093,-0.0094,0,0,0,0,0,0,0,0.0002,0.0,-0.0016,-0.0012,-0.0013,-0.0016,-0.0018,-0.004,-0.0045,-0.0023,-0.0023,-0.0025,-0.0066,-0.0069,-0.0073,-0.0107,-0.0091,-0.0093,-0.0094,-0.0095,-0.0154,-0.0154,0,0,0,0,0,0,0.0004,0.0001,-0.0015,-0.0016,-0.0006,-0.0017,-0.0018,-0.0021,-0.0044,-0.0047,-0.0025,-0.0025,-0.0065,-0.007,-0.0075,-0.0094,-0.0093,-0.0095,-0.0096,-0.0154,-0.0154,-0.0154,0,0,0,0,0,0,0.0004,0.0002,-0.0014,-0.0008,-0.001,-0.0017,-0.002,-0.0022,-0.0026,-0.0046,-0.005,-0.0029,-0.0065,-0.0071,-0.0094,-0.0096,-0.0096,-0.0098,-0.0153,-0.0154,-0.0154,-0.0136,0,0,0,0,0,0,0.0005,0.0003,0.0001,-0.0008,-0.0011,-0.0019,-0.0021,-0.0022,-0.0028,-0.0028,-0.005,-0.0055,-0.0066,-0.0091,-0.0097,-0.01,-0.01,-0.0153,-0.0153,-0.0154,-0.0136,-0.0136,-0.0135,0,0,0,0,0,0.0006,0.0006,0.0001,-0.0001,-0.0013,-0.0019,-0.002,-0.0025,-0.0028,-0.0028,-0.0045,-0.0054,-0.0097,-0.0093,-0.01,-0.0103,-0.0153,-0.0153,-0.0154,-0.0137,-0.0136,-0.0135,0,0,0,0,0,0,0.0009,0.0005,-0.0,-0.0004,-0.001,-0.0019,-0.002,-0.0026,-0.0039,-0.0043,-0.006,-0.0066,-0.0086,-0.0099,-0.0094,-0.0121,-0.0125,-0.0127,-0.011,-0.0109,-0.0109,-0.0098,-0.0102,0,0,0,0,0,0.0009,0.0011,0.0002,-0.0002,-0.0004,-0.0014,-0.0018,-0.0023,-0.0035,-0.004,-0.0056,-0.0075,-0.0093,-0.0104,-0.0122,-0.0141,-0.0157,-0.0147,-0.0146,-0.0145,-0.0141,-0.0175,-0.0177,-0.0155,-0.0155,-0.0155,0,0,0.0008,0.0007,0.0006,-0.0,-0.0006,-0.0005,-0.0016,-0.0022,-0.0023,-0.0046,-0.0056,-0.0076,-0.0098,-0.0114,-0.0124,-0.0126,-0.0159,-0.0146,-0.0145,-0.0141,-0.0176,-0.0178,-0.018,-0.0156,-0.0156,-0.0155,0,0,0.0018,0.0006,0.0017,0.0013,0.0007,-0.0002,-0.0004,-0.0016,-0.0023,-0.004,-0.0053,-0.0074,-0.0102,-0.0114,-0.0125,-0.0134,-0.0154,-0.0141,-0.013,-0.0163,-0.0165,-0.0167,-0.0185,-0.0188,-0.014,-0.014,-0.014,0,0.0019,0.0029,0.0017,0.0028,0.0027,0.0001,0.001,-0.0004,-0.0022,-0.0031,-0.004,-0.0082,-0.0101,-0.0119,-0.0119,-0.0132,-0.0151,-0.013,-0.0162,-0.0165,-0.0167,-0.0185,-0.0189,-0.0139,-0.0139,-0.0139,-0.014,0,0.0043,0.0048,0.0052,0.0058,0.0052,0.0052,0.0033,0.0022,0.0002,-0.0013,-0.004,-0.007,-0.0091,-0.0103,-0.0114,-0.0137,-0.0144,-0.0158,-0.0163,-0.0168,-0.0186,-0.0191,-0.0138,-0.0138,-0.0139,-0.0139,0,0,0.0061,0.0069,0.0074,0.0081,0.0069,0.0068,0.0057,0.0042,0.0037,0.0002,-0.0008,-0.0046,-0.0067,-0.008,-0.0102,-0.013,-0.0161,-0.0149,-0.0151,-0.0163,-0.0227,-0.021,-0.0213,-0.0185,-0.0186,-0.0187,-0.0231,0,0.0087,0.0115,0.0111,0.0127,0.0134,0.0109,0.0105,0.0083,0.0055,0.0037,-0.001,-0.0027,-0.0057,-0.0065,-0.0103,-0.0146,-0.0175,-0.0147,-0.0223,-0.0225,-0.0206,-0.0219,-0.0189,-0.0235,-0.0236,-0.0236,-0.0237,0,0.0117,0.0133,0.0156,0.0163,0.0165,0.0169,0.0155,0.0148,0.0107,0.0087,0.0047,0.0011,-0.0033,-0.0058,-0.0145,-0.0128,-0.0173,-0.0211,-0.0214,-0.0206,-0.0216,-0.0231,-0.0246,-0.0245,-0.0245,-0.0244,-0.0244,0,0.0137,0.0163,0.0183,0.0186,0.0188,0.0194,0.0191,0.0162,0.0162,0.012,0.0115,0.0042,0.0019,-0.0062,-0.0142,-0.0147,-0.0237,-0.0253,-0.028,-0.0278,-0.0288,-0.0286,-0.0313,-0.0313,-0.0313,-0.0313,-0.0312,0,0.016,0.0178,0.0198,0.0208,0.0236,0.0224,0.0241,0.0226,0.021,0.0215,0.0147,0.0137,0.0016,-0.0051,-0.0134,-0.0219,-0.0234,-0.0277,-0.0292,-0.0279,-0.0275,-0.0292,-0.0289,-0.0314,-0.0314,-0.0314,-0.0313,0,0.0171,0.0183,0.021,0.0233,0.0244,0.0262,0.0287,0.0297,0.028,0.0284,0.0277,0.0205,0.0118,0.0002,-0.0124,-0.019,-0.0282,-0.0306,-0.0271,-0.0283,-0.0303,-0.0299,-0.0344,-0.0344,-0.0343,-0.0343,-0.0343,0,0.0178,0.0194,0.0235,0.026,0.0273,0.0304,0.0328,0.0329,0.0343,0.033,0.0336,0.0263,0.0202,0.0042,-0.0089,-0.0249,-0.0269,-0.0315,-0.0324,-0.0298,-0.0308,-0.0304,-0.03,-0.0343,-0.0343,-0.0343,-0.0343,0,0.0193,0.0207,0.0232,0.0288,0.0325,0.0368,0.0403,0.0423,0.0425,0.0413,0.0392,0.0303,0.0209,0.0061,-0.006,-0.0177,-0.029,-0.0314,-0.0315,-0.0324,-0.0298,-0.0307,-0.0303,-0.0342,-0.0342,-0.0342,-0.0342,0,0.0205,0.0228,0.0267,0.0316,0.0367,0.0419,0.0435,0.0459,0.0473,0.0457,0.0449,0.034,0.0267,0.01,-0.0014,-0.0128,-0.016,-0.0198,-0.0206,-0.0208,-0.0161,-0.0107,-0.0105,0,0,0,0,0,0.0216,0.0246,0.0295,0.0349,0.0402,0.0435,0.0482,0.0492,0.0499,0.0494,0.0473,0.0385,0.0219,0.0142,0.0033,-0.0021,-0.0186,-0.0153,-0.0235,-0.0339,-0.034,-0.0307,0,0,0,0,0,0,0.0222,0.0266,0.0295,0.0372,0.0414,0.0476,0.0509,0.0515,0.051,0.0497,0.041,0.0361,0.0194,0.0282,0.0031,-0.0005,-0.007,-0.0237,-0.0239,-0.0339,-0.0339,-0.034,-0.0306,0,0,0,0,0]}]]